When you browse on this site, cookies collect data to enhance your experience and personalize the content and advertising you see.
Visit our Privacy Policy to learn more. By continuing to use the site, you agree to this use of cookies and data.
  • En España
  • Lista de países
  • Para 7 días
  • Temperatura del agua
  • El tiempo en el mapa
  • Informadores
  • user-avatar
    Iniciar sesión

    Tiempo cada hora Bragansa

    Hoy, 25 Mayo, Lunes

    Tiempo Temperatura Precipitaciones Viento Presión Humedad
    00:00 +19°C° 0 mm 2 mps 719 mmHg 72%
    01:00 +18°C° 0 mm 2 mps 719 mmHg 74%
    02:00 +17°C° 0 mm 2 mps 718 mmHg 77%
    03:00 +16°C° 0 mm 2 mps 718 mmHg 79%
    04:00 +16°C° 0 mm 2 mps 718 mmHg 78%
    05:00 +16°C° 0 mm 2 mps 718 mmHg 77%
    06:00 +16°C° 0 mm 2 mps 718 mmHg 74%
    07:00 +18°C° 0 mm 2 mps 719 mmHg 65%
    08:00 +21°C° 0 mm 2 mps 719 mmHg 57%
    09:00 +24°C° 0 mm 2 mps 719 mmHg 48%
    10:00 +25°C° 0 mm 2 mps 719 mmHg 44%
    11:00 +27°C° 0 mm 2 mps 719 mmHg 41%
    12:00 +29°C° 0 mm 3 mps 719 mmHg 37%
    13:00 +29°C° 0 mm 3 mps 719 mmHg 35%
    14:00 +30°C° 0 mm 3 mps 719 mmHg 34%
    15:00 +30°C° 0 mm 3 mps 719 mmHg 33%
    16:00 +29°C° 0 mm 3 mps 718 mmHg 36%
    17:00 +28°C° 0 mm 3 mps 718 mmHg 39%
    18:00 +26°C° 0 mm 4 mps 718 mmHg 43%
    19:00 +25°C° 0 mm 4 mps 718 mmHg 46%
    20:00 +22°C° 0 mm 5 mps 719 mmHg 48%
    21:00 +21°C° 0 mm 6 mps 719 mmHg 51%
    22:00 +19°C° 0 mm 6 mps 719 mmHg 49%
    23:00 +17°C° 0 mm 6 mps 719 mmHg 47%

    Mañana, 26 Mayo, Martes

    Tiempo Temperatura Precipitaciones Viento Presión Humedad
    00:00 +16°C° 0 mm 5 mps 719 mmHg 44%
    01:00 +15°C° 0 mm 5 mps 719 mmHg 46%
    02:00 +15°C° 0 mm 5 mps 719 mmHg 48%
    03:00 +14°C° 0 mm 4 mps 719 mmHg 50%
    04:00 +14°C° 0 mm 4 mps 719 mmHg 51%
    05:00 +14°C° 0 mm 4 mps 719 mmHg 52%
    06:00 +14°C° 0 mm 4 mps 719 mmHg 53%
    07:00 +16°C° 0 mm 5 mps 719 mmHg 52%
    08:00 +19°C° 0 mm 6 mps 719 mmHg 50%
    09:00 +21°C° 0 mm 6 mps 720 mmHg 48%
    10:00 +23°C° 0 mm 6 mps 720 mmHg 47%
    11:00 +26°C° 0 mm 6 mps 719 mmHg 45%
    12:00 +27°C° 0 mm 6 mps 719 mmHg 43%
    13:00 +28°C° 0 mm 6 mps 719 mmHg 42%
    14:00 +29°C° 0 mm 6 mps 719 mmHg 41%
    15:00 +29°C° 0 mm 6 mps 718 mmHg 40%
    16:00 +29°C° 0 mm 6 mps 718 mmHg 43%
    17:00 +28°C° 0 mm 6 mps 718 mmHg 46%
    18:00 +27°C° 0 mm 6 mps 718 mmHg 49%
    19:00 +26°C° 0 mm 6 mps 718 mmHg 53%
    20:00 +23°C° 0 mm 6 mps 718 mmHg 57%
    21:00 +21°C° 0 mm 6 mps 718 mmHg 61%
    22:00 +20°C° 0 mm 6 mps 718 mmHg 61%
    23:00 +19°C° 0 mm 6 mps 718 mmHg 61%

    Pasado mañana, 27 Mayo, Miércoles

    Tiempo Temperatura Precipitaciones Viento Presión Humedad
    00:00 +17°C° 0 mm 5 mps 718 mmHg 62%
    01:00 +17°C° 0 mm 5 mps 718 mmHg 62%
    02:00 +16°C° 0 mm 5 mps 718 mmHg 62%
    03:00 +15°C° 0 mm 4 mps 718 mmHg 63%
    04:00 +15°C° 0 mm 4 mps 718 mmHg 64%
    05:00 +15°C° 0 mm 4 mps 718 mmHg 65%
    06:00 +16°C° 0 mm 3 mps 718 mmHg 66%
    07:00 +18°C° 0 mm 4 mps 718 mmHg 61%
    08:00 +20°C° 0 mm 4 mps 718 mmHg 56%
    09:00 +23°C° 0 mm 5 mps 719 mmHg 51%
    10:00 +26°C° 0 mm 5 mps 719 mmHg 47%
    11:00 +28°C° 0 mm 5 mps 719 mmHg 42%
    12:00 +30°C° 0 mm 5 mps 718 mmHg 38%
    13:00 +30°C° 0 mm 5 mps 718 mmHg 36%
    14:00 +32°C° 0 mm 5 mps 718 mmHg 33%
    15:00 +33°C° 0 mm 4 mps 718 mmHg 31%
    16:00 +32°C° 0 mm 4 mps 717 mmHg 33%
    17:00 +30°C° 0 mm 3 mps 717 mmHg 35%
    18:00 +30°C° 0 mm 3 mps 717 mmHg 37%
    19:00 +28°C° 0 mm 3 mps 717 mmHg 43%
    20:00 +26°C° 0 mm 2 mps 717 mmHg 49%
    21:00 +24°C° 0 mm 2 mps 717 mmHg 55%
    22:00 +23°C° 0 mm 2 mps 717 mmHg 61%
    23:00 +21°C° 0 mm 2 mps 717 mmHg 66%

    28 Mayo, Jueves

    Tiempo Temperatura Precipitaciones Viento Presión Humedad
    00:00 +20°C° 0 mm 3 mps 717 mmHg 72%
    01:00 +19°C° 0 mm 2 mps 717 mmHg 76%
    02:00 +18°C° 0 mm 2 mps 717 mmHg 80%
    03:00 +18°C° 0 mm 2 mps 717 mmHg 84%
    04:00 +18°C° 0 mm 2 mps 717 mmHg 84%
    05:00 +19°C° 0 mm 1 mps 717 mmHg 83%
    06:00 +19°C° 0 mm 1 mps 717 mmHg 83%
    07:00 +21°C° 0 mm 1 mps 717 mmHg 72%
    08:00 +23°C° 0 mm 2 mps 717 mmHg 62%
    09:00 +26°C° 0 mm 2 mps 717 mmHg 52%
    10:00 +28°C° 0 mm 2 mps 717 mmHg 45%
    11:00 +30°C° 0 mm 1 mps 717 mmHg 39%
    12:00 +31°C° 0 mm 1 mps 717 mmHg 33%
    13:00 +32°C° 0 mm 1 mps 717 mmHg 31%
    14:00 +32°C° 0 mm 1 mps 717 mmHg 29%
    15:00 +33°C° 0 mm 1 mps 716 mmHg 27%
    16:00 +32°C° 0 mm 1 mps 716 mmHg 32%
    17:00 +30°C° 0 mm 1 mps 716 mmHg 36%
    18:00 +29°C° 0 mm 2 mps 715 mmHg 40%
    19:00 +28°C° 0 mm 2 mps 716 mmHg 45%
    20:00 +26°C° 0 mm 2 mps 716 mmHg 51%
    21:00 +24°C° 0 mm 1 mps 716 mmHg 56%
    22:00 +24°C° 0 mm 1 mps 716 mmHg 59%
    23:00 +23°C° 0 mm 1 mps 716 mmHg 62%

    29 Mayo, Viernes

    Tiempo Temperatura Precipitaciones Viento Presión Humedad
    00:00 +22°C° 0 mm 1 mps 715 mmHg 65%
    01:00 +21°C° 0 mm 1 mps 715 mmHg 67%
    02:00 +21°C° 0 mm 1 mps 715 mmHg 70%
    03:00 +18°C° 0 mm 0 mps 714 mmHg 72%
    04:00 +18°C° 0 mm 0 mps 714 mmHg 71%
    05:00 +19°C° 0 mm 0 mps 715 mmHg 71%
    06:00 +19°C° 0 mm 0 mps 715 mmHg 71%
    07:00 +21°C° 0 mm 0 mps 715 mmHg 64%
    08:00 +23°C° 0 mm 0 mps 715 mmHg 57%
    09:00 +25°C° 0 mm 0 mps 715 mmHg 50%
    10:00 +29°C° 0 mm 1 mps 715 mmHg 44%
    11:00 +30°C° 0 mm 1 mps 715 mmHg 39%
    12:00 +32°C° 0 mm 2 mps 715 mmHg 34%
    13:00 +31°C° 0 mm 2 mps 714 mmHg 33%
    14:00 +31°C° 0 mm 3 mps 714 mmHg 33%
    15:00 +31°C° 0 mm 3 mps 714 mmHg 32%
    16:00 +30°C° 0 mm 3 mps 714 mmHg 36%
    17:00 +29°C° 0 mm 3 mps 714 mmHg 40%
    18:00 +28°C° 0 mm 3 mps 713 mmHg 44%
    19:00 +26°C° 0.3 mm 2 mps 714 mmHg 51%
    20:00 +24°C° 0.3 mm 2 mps 714 mmHg 59%
    21:00 +23°C° 0.3 mm 1 mps 714 mmHg 66%
    22:00 +22°C° 0.3 mm 1 mps 714 mmHg 70%
    23:00 +21°C° 0.3 mm 1 mps 713 mmHg 73%

    30 Mayo, Sábado

    Tiempo Temperatura Precipitaciones Viento Presión Humedad
    00:00 +20°C° 0.3 mm 1 mps 713 mmHg 77%
    01:00 +20°C° 0 mm 1 mps 713 mmHg 78%
    02:00 +19°C° 0 mm 1 mps 713 mmHg 79%
    03:00 +19°C° 0 mm 1 mps 712 mmHg 81%
    04:00 +19°C° 0 mm 1 mps 712 mmHg 80%
    05:00 +19°C° 0 mm 1 mps 712 mmHg 79%
    06:00 +19°C° 0 mm 1 mps 712 mmHg 79%
    07:00 +21°C° 0 mm 1 mps 713 mmHg 70%
    08:00 +24°C° 0 mm 1 mps 713 mmHg 62%
    09:00 +26°C° 0 mm 1 mps 713 mmHg 54%
    10:00 +28°C° 0 mm 1 mps 713 mmHg 47%
    11:00 +30°C° 0 mm 1 mps 713 mmHg 41%
    12:00 +32°C° 0 mm 1 mps 713 mmHg 34%
    13:00 +32°C° 0 mm 1 mps 713 mmHg 32%
    14:00 +32°C° 0 mm 2 mps 713 mmHg 29%
    15:00 +32°C° 0 mm 2 mps 712 mmHg 26%
    16:00 +32°C° 0 mm 2 mps 712 mmHg 29%
    17:00 +31°C° 0 mm 2 mps 712 mmHg 31%
    18:00 +30°C° 0 mm 2 mps 712 mmHg 34%
    19:00 +28°C° 0 mm 2 mps 712 mmHg 41%
    20:00 +26°C° 0 mm 2 mps 712 mmHg 48%
    21:00 +24°C° 0 mm 1 mps 712 mmHg 56%
    22:00 +23°C° 0.3 mm 1 mps 712 mmHg 60%
    23:00 +23°C° 0.3 mm 1 mps 712 mmHg 64%
    Mostrar más